Tracking 28125 objects as of 4-Oct-2023
HD Live streaming from Space Station
objects crossing your sky now

THORAD AGENA D DEB

Track THORAD AGENA D DEB now!
10-day predictions


NORAD ID: 5183
Int'l Code: 1970-025JZ
Perigee: 956.7 km
Apogee: 1,005.9 km
Inclination: 100.1 °
Period: 104.6 minutes
Semi major axis: 7352 km
RCS: 0.0421 m2 (small)
Launch date: April 8, 1970
Source: United States (US)
Launch site: AIR FORCE WESTERN TEST RANGE (AFWTR)

Note: This is SATELLITE DEBRIS
Your satellite tracking list
Your tracking list is empty




NASA's NSSDC Master Catalog

Two Line Element Set (TLE):
1  5183U 70025JZ  23276.99373412  .00001172  00000-0  12308-2 0  9996
2  5183 100.0951  91.2430 0033468 303.4153 178.2304 13.77116853668992
Source of the keplerian elements: AFSPC